Time,TemperatureF,DewpointF,PressureIn,WindDirection,WindDirectionDegrees,WindSpeedMPH,WindSpeedGustMPH,Humidity,HourlyPrecipIn,Conditions,Clouds,dailyrainin,SoftwareType,DateUTC
2013-01-06 16:12:00,34.0,27.0,-100.00,WSW,250,9.0,21.0,76,-99.99,,,-99.99,,2013-01-06 21:12:00,
2013-01-06 16:22:00,33.0,27.0,-100.00,West,260,11.0,17.0,75,-99.99,,,-99.99,,2013-01-06 21:22:00,
2013-01-06 16:33:00,33.0,27.0,-100.00,West,265,15.0,20.0,76,-99.99,,,-99.99,,2013-01-06 21:33:00,
2013-01-06 16:42:00,33.0,27.0,-100.00,West,260,11.0,19.0,77,-99.99,,,-99.99,,2013-01-06 21:42:00,
2013-01-06 16:52:00,33.0,27.0,-100.00,West,265,13.0,19.0,78,-99.99,,,-99.99,,2013-01-06 21:52:00,
2013-01-06 17:02:00,33.0,27.0,-100.00,West,260,14.0,20.0,78,-99.99,,,-99.99,,2013-01-06 22:02:00,
2013-01-06 17:12:00,33.0,27.0,-100.00,West,265,15.0,21.0,80,-99.99,,,-99.99,,2013-01-06 22:12:00,
2013-01-06 17:22:00,33.0,27.0,-100.00,West,270,12.0,21.0,80,-99.99,,,-99.99,,2013-01-06 22:22:00,
2013-01-06 17:33:00,32.0,28.0,-100.00,West,280,11.0,18.0,81,-99.99,,,-99.99,,2013-01-06 22:33:00,
2013-01-06 17:43:00,32.0,28.0,-100.00,West,265,10.0,18.0,81,-99.99,,,-99.99,,2013-01-06 22:43:00,
2013-01-06 17:52:00,32.0,28.0,-100.00,West,260,6.0,16.0,82,-99.99,,,-99.99,,2013-01-06 22:52:00,
2013-01-06 18:02:00,32.0,27.0,-100.00,West,260,10.0,17.0,82,-99.99,,,-99.99,,2013-01-06 23:02:00,
2013-01-06 18:12:00,32.0,27.0,-100.00,West,275,11.0,17.0,82,-99.99,,,-99.99,,2013-01-06 23:12:00,
2013-01-06 18:22:00,32.0,27.0,-100.00,WSW,255,9.0,19.0,82,-99.99,,,-99.99,,2013-01-06 23:22:00,
2013-01-06 18:33:00,31.0,27.0,-100.00,WSW,255,7.0,15.0,81,-99.99,,,-99.99,,2013-01-06 23:33:00,
2013-01-06 18:43:00,31.0,26.0,-100.00,WSW,255,8.0,19.0,81,-99.99,,,-99.99,,2013-01-06 23:43:00,
2013-01-06 18:52:00,31.0,26.0,-100.00,West,260,12.0,17.0,82,-99.99,,,-99.99,,2013-01-06 23:52:00,
2013-01-06 19:02:00,31.0,26.0,-100.00,West,260,11.0,19.0,81,-99.99,,,-99.99,,2013-01-07 00:02:00,
2013-01-06 19:12:00,31.0,26.0,-100.00,WSW,255,11.0,17.0,82,-99.99,,,-99.99,,2013-01-07 00:12:00,
2013-01-06 19:23:00,31.0,26.0,-100.00,WSW,255,9.0,18.0,82,-99.99,,,-99.99,,2013-01-07 00:23:00,
2013-01-06 19:33:00,31.0,26.0,-100.00,West,260,12.0,17.0,83,-99.99,,,-99.99,,2013-01-07 00:33:00,
2013-01-06 19:42:00,31.0,26.0,-100.00,West,265,12.0,17.0,83,-99.99,,,-99.99,,2013-01-07 00:42:00,
2013-01-06 19:53:00,31.0,26.0,-100.00,WSW,255,9.0,16.0,83,-99.99,,,-99.99,,2013-01-07 00:53:00,
2013-01-06 20:02:00,30.0,26.0,-100.00,WSW,255,11.0,14.0,84,-99.99,,,-99.99,,2013-01-07 01:02:00,
2013-01-06 20:12:00,30.0,26.0,-100.00,WSW,245,9.0,17.0,84,-99.99,,,-99.99,,2013-01-07 01:12:00,
2013-01-06 20:23:00,30.0,26.0,-100.00,WSW,255,11.0,16.0,84,-99.99,,,-99.99,,2013-01-07 01:23:00,
2013-01-06 20:32:00,30.0,26.0,-100.00,WSW,250,11.0,19.0,84,-99.99,,,-99.99,,2013-01-07 01:32:00,
2013-01-06 20:42:00,30.0,26.0,-100.00,West,260,11.0,19.0,84,-99.99,,,-99.99,,2013-01-07 01:42:00,
2013-01-06 20:52:00,30.0,26.0,-100.00,West,265,11.0,17.0,84,-99.99,,,-99.99,,2013-01-07 01:52:00,
2013-01-06 21:02:00,29.0,25.0,-100.00,West,260,10.0,16.0,85,-99.99,,,-99.99,,2013-01-07 02:02:00,
2013-01-06 21:12:00,29.0,25.0,-100.00,West,275,10.0,17.0,85,-99.99,,,-99.99,,2013-01-07 02:12:00,
2013-01-06 21:23:00,29.0,25.0,-100.00,WSW,250,9.0,17.0,85,-99.99,,,-99.99,,2013-01-07 02:23:00,
2013-01-06 21:32:00,29.0,26.0,-100.00,West,270,8.0,15.0,85,-99.99,,,-99.99,,2013-01-07 02:32:00,
2013-01-06 21:42:00,29.0,26.0,-100.00,West,265,11.0,17.0,85,-99.99,,,-99.99,,2013-01-07 02:42:00,
2013-01-06 21:52:00,29.0,26.0,-100.00,West,260,11.0,17.0,85,-99.99,,,-99.99,,2013-01-07 02:52:00,
2013-01-06 22:02:00,29.0,26.0,-100.00,West,265,10.0,16.0,86,-99.99,,,-99.99,,2013-01-07 03:02:00,
2013-01-06 22:12:00,29.0,26.0,-100.00,West,265,11.0,18.0,86,-99.99,,,-99.99,,2013-01-07 03:12:00,
2013-01-06 22:22:00,29.0,26.0,-100.00,West,265,12.0,15.0,86,-99.99,,,-99.99,,2013-01-07 03:22:00,
2013-01-06 22:33:00,29.0,26.0,-100.00,West,270,11.0,16.0,86,-99.99,,,-99.99,,2013-01-07 03:33:00,
2013-01-06 22:43:00,30.0,26.0,-100.00,WSW,255,10.0,16.0,86,-99.99,,,-99.99,,2013-01-07 03:43:00,
2013-01-06 22:52:00,30.0,26.0,-100.00,West,270,8.0,14.0,86,-99.99,,,-99.99,,2013-01-07 03:52:00,
2013-01-06 23:02:00,30.0,26.0,-100.00,WSW,250,7.0,13.0,86,-99.99,,,-99.99,,2013-01-07 04:02:00,
2013-01-06 23:12:00,30.0,26.0,-100.00,West,260,7.0,11.0,87,-99.99,,,-99.99,,2013-01-07 04:12:00,
2013-01-06 23:22:00,30.0,26.0,-100.00,West,260,8.0,13.0,87,-99.99,,,-99.99,,2013-01-07 04:22:00,
2013-01-06 23:32:00,30.0,26.0,-100.00,WSW,255,7.0,12.0,87,-99.99,,,-99.99,,2013-01-07 04:32:00,
2013-01-06 23:42:00,30.0,27.0,-100.00,WSW,255,7.0,14.0,87,-99.99,,,-99.99,,2013-01-07 04:42:00,
2013-01-06 23:52:00,30.0,27.0,-100.00,WSW,255,8.0,14.0,87,-99.99,,,-99.99,,2013-01-07 04:52:00,